• In India
  • List of Countries
  • For 7 days
  • Water Temperature
  • Satellite Maps
  • Weather Map
  • Weather Widgets
  • user-avatar
    Login

    Hourly Weather Lubomierz

    Today, 23 November, Thursday

    Time Temperature Precipitation Wind Pressure Humidity
    00:00 +3°C° 0 mm 3 mps 725 mmHg 87%
    01:00 +3°C° 0 mm 3 mps 725 mmHg 87%
    02:00 +3°C° 0 mm 3 mps 725 mmHg 85%
    03:00 +3°C° 0 mm 3 mps 725 mmHg 83%
    04:00 +3°C° 0 mm 3 mps 725 mmHg 82%
    05:00 +3°C° 0 mm 3 mps 725 mmHg 79%
    06:00 +3°C° 0 mm 3 mps 725 mmHg 77%
    07:00 +3°C° 0 mm 3 mps 725 mmHg 77%
    08:00 +4°C° 0 mm 4 mps 725 mmHg 72%
    09:00 +5°C° 0 mm 4 mps 725 mmHg 66%
    10:00 +7°C° 0 mm 5 mps 725 mmHg 60%
    11:00 +7°C° 0 mm 5 mps 726 mmHg 58%
    12:00 +8°C° 0 mm 5 mps 726 mmHg 56%
    13:00 +10°C° 0 mm 4 mps 725 mmHg 55%
    14:00 +8°C° 0 mm 4 mps 725 mmHg 57%
    15:00 +8°C° 0 mm 4 mps 725 mmHg 60%
    16:00 +7°C° 0 mm 5 mps 725 mmHg 63%
    17:00 +6°C° 0 mm 5 mps 726 mmHg 65%
    18:00 +6°C° 0 mm 5 mps 726 mmHg 67%
    19:00 +6°C° 0 mm 5 mps 726 mmHg 69%
    20:00 +6°C° 0 mm 4 mps 727 mmHg 71%
    21:00 +5°C° 0 mm 4 mps 727 mmHg 72%
    22:00 +5°C° 0 mm 4 mps 727 mmHg 74%
    23:00 +5°C° 0 mm 4 mps 727 mmHg 75%

    Tomorrow, 24 November, Friday

    Time Temperature Precipitation Wind Pressure Humidity
    00:00 +5°C° 0 mm 4 mps 728 mmHg 76%
    01:00 +5°C° 0 mm 4 mps 728 mmHg 77%
    02:00 +5°C° 0 mm 4 mps 728 mmHg 78%
    03:00 +4°C° 0 mm 4 mps 728 mmHg 79%
    04:00 +4°C° 0 mm 3 mps 728 mmHg 80%
    05:00 +4°C° 0 mm 3 mps 728 mmHg 81%
    06:00 +4°C° 0 mm 3 mps 728 mmHg 82%
    07:00 +4°C° 0 mm 3 mps 728 mmHg 83%
    08:00 +5°C° 0 mm 4 mps 728 mmHg 80%
    09:00 +6°C° 0 mm 4 mps 728 mmHg 76%
    10:00 +8°C° 0 mm 5 mps 728 mmHg 73%
    11:00 +9°C° 0 mm 5 mps 727 mmHg 69%
    12:00 +10°C° 0 mm 5 mps 727 mmHg 66%
    13:00 +10°C° 0 mm 6 mps 727 mmHg 62%
    14:00 +10°C° 0 mm 5 mps 727 mmHg 65%
    15:00 +9°C° 0 mm 5 mps 727 mmHg 67%
    16:00 +8°C° 0 mm 5 mps 726 mmHg 70%
    17:00 +8°C° 0 mm 5 mps 726 mmHg 70%
    18:00 +8°C° 0 mm 5 mps 727 mmHg 71%
    19:00 +8°C° 0 mm 5 mps 727 mmHg 72%
    20:00 +7°C° 0 mm 4 mps 727 mmHg 73%
    21:00 +7°C° 0 mm 4 mps 727 mmHg 75%
    22:00 +7°C° 0 mm 4 mps 727 mmHg 76%
    23:00 +8°C° 0.1 mm 3 mps 727 mmHg 80%

    Day after tomorrow, 25 November, Saturday

    Time Temperature Precipitation Wind Pressure Humidity
    00:00 +7°C° 0.1 mm 3 mps 727 mmHg 84%
    01:00 +7°C° 0.1 mm 2 mps 727 mmHg 87%
    02:00 +6°C° 0.1 mm 2 mps 727 mmHg 88%
    03:00 +6°C° 0.1 mm 2 mps 726 mmHg 89%
    04:00 +6°C° 0.1 mm 2 mps 726 mmHg 90%
    05:00 +6°C° 0 mm 2 mps 725 mmHg 89%
    06:00 +5°C° 0 mm 3 mps 725 mmHg 89%
    07:00 +5°C° 0 mm 3 mps 724 mmHg 88%
    08:00 +5°C° 0 mm 4 mps 723 mmHg 85%
    09:00 +6°C° 0 mm 5 mps 723 mmHg 81%
    10:00 +6°C° 0 mm 5 mps 722 mmHg 78%
    11:00 +6°C° 0 mm 5 mps 721 mmHg 76%
    12:00 +7°C° 0 mm 5 mps 721 mmHg 74%
    13:00 +7°C° 0 mm 5 mps 720 mmHg 73%
    14:00 +6°C° 0.2 mm 4 mps 720 mmHg 76%
    15:00 +6°C° 0.2 mm 4 mps 720 mmHg 79%
    16:00 +6°C° 0.2 mm 4 mps 721 mmHg 83%
    17:00 +5°C° 0.5 mm 4 mps 721 mmHg 83%
    18:00 +3°C° 0.5 mm 5 mps 722 mmHg 84%
    19:00 +3°C° 0.5 mm 6 mps 723 mmHg 85%
    20:00 +2°C° 0 mm 6 mps 724 mmHg 84%
    21:00 +2°C° 0 mm 5 mps 724 mmHg 84%
    22:00 +1°C° 0 mm 5 mps 725 mmHg 83%
    23:00 +1°C° 0 mm 4 mps 726 mmHg 83%

    26 November, Sunday

    Time Temperature Precipitation Wind Pressure Humidity
    00:00 +1°C° 0 mm 4 mps 727 mmHg 83%
    01:00 0°C° 0 mm 4 mps 727 mmHg 84%
    02:00 +1°C° 0 mm 3 mps 728 mmHg 85%
    03:00 +1°C° 0 mm 3 mps 728 mmHg 86%
    04:00 0°C° 0 mm 3 mps 729 mmHg 87%
    05:00 0°C° 0 mm 3 mps 729 mmHg 88%
    06:00 0°C° 0 mm 3 mps 730 mmHg 88%
    07:00 0°C° 0 mm 3 mps 730 mmHg 88%
    08:00 0°C° 0 mm 3 mps 731 mmHg 84%
    09:00 +1°C° 0 mm 3 mps 731 mmHg 80%
    10:00 0°C° 0 mm 4 mps 731 mmHg 76%
    11:00 0°C° 0 mm 4 mps 732 mmHg 72%
    12:00 +1°C° 0 mm 4 mps 732 mmHg 68%
    13:00 +1°C° 0 mm 4 mps 732 mmHg 64%
    14:00 +1°C° 0 mm 4 mps 732 mmHg 67%
    15:00 +1°C° 0 mm 3 mps 732 mmHg 70%
    16:00 0°C° 0 mm 3 mps 732 mmHg 73%
    17:00 0°C° 0 mm 3 mps 732 mmHg 75%
    18:00 -1°C° 0 mm 3 mps 733 mmHg 77%
    19:00 -1°C° 0 mm 3 mps 733 mmHg 79%
    20:00 -1°C° 0 mm 3 mps 733 mmHg 79%
    21:00 -1°C° 0 mm 3 mps 733 mmHg 79%
    22:00 -1°C° 0 mm 3 mps 733 mmHg 80%
    23:00 -1°C° 0 mm 3 mps 733 mmHg 80%

    27 November, Monday

    Time Temperature Precipitation Wind Pressure Humidity
    00:00 -1°C° 0 mm 3 mps 733 mmHg 80%
    01:00 -1°C° 0 mm 3 mps 733 mmHg 79%
    02:00 -2°C° 0 mm 3 mps 733 mmHg 80%
    03:00 -2°C° 0 mm 3 mps 733 mmHg 81%
    04:00 -2°C° 0 mm 3 mps 733 mmHg 82%
    05:00 -2°C° 0 mm 3 mps 733 mmHg 82%
    06:00 -2°C° 0 mm 3 mps 733 mmHg 81%
    07:00 -2°C° 0 mm 3 mps 733 mmHg 81%
    08:00 -2°C° 0 mm 4 mps 733 mmHg 78%
    09:00 -1°C° 0 mm 4 mps 733 mmHg 74%
    10:00 0°C° 0 mm 5 mps 733 mmHg 71%
    11:00 0°C° 0 mm 4 mps 733 mmHg 69%
    12:00 +1°C° 0 mm 4 mps 733 mmHg 68%
    13:00 +1°C° 0 mm 4 mps 733 mmHg 67%
    14:00 0°C° 0 mm 4 mps 733 mmHg 70%
    15:00 +1°C° 0 mm 3 mps 732 mmHg 73%
    16:00 +1°C° 0 mm 2 mps 732 mmHg 76%
    17:00 +1°C° 0 mm 2 mps 732 mmHg 77%
    18:00 +1°C° 0 mm 2 mps 732 mmHg 78%
    19:00 -1°C° 0 mm 2 mps 732 mmHg 80%
    20:00 -1°C° 0 mm 2 mps 732 mmHg 80%
    21:00 -2°C° 0 mm 3 mps 731 mmHg 81%
    22:00 -2°C° 0 mm 3 mps 731 mmHg 81%
    23:00 -2°C° 0 mm 3 mps 731 mmHg 81%

    28 November, Tuesday

    Time Temperature Precipitation Wind Pressure Humidity
    00:00 -2°C° 0 mm 3 mps 731 mmHg 80%
    01:00 -2°C° 0 mm 3 mps 730 mmHg 80%
    02:00 -2°C° 0 mm 3 mps 730 mmHg 80%
    03:00 -2°C° 0 mm 4 mps 730 mmHg 80%
    04:00 -2°C° 0 mm 4 mps 729 mmHg 80%
    05:00 -2°C° 0 mm 4 mps 729 mmHg 80%
    06:00 -2°C° 0 mm 4 mps 729 mmHg 79%
    07:00 -2°C° 0 mm 4 mps 729 mmHg 78%
    08:00 -1°C° 0.1 mm 4 mps 729 mmHg 75%
    09:00 -1°C° 0.1 mm 5 mps 728 mmHg 72%
    10:00 0°C° 0.1 mm 5 mps 728 mmHg 68%
    11:00 0°C° 0.1 mm 5 mps 728 mmHg 66%
    12:00 +1°C° 0.1 mm 5 mps 727 mmHg 63%
    13:00 +1°C° 0.1 mm 5 mps 727 mmHg 60%
    14:00 +1°C° 0.1 mm 5 mps 727 mmHg 63%
    15:00 +1°C° 0.1 mm 5 mps 726 mmHg 65%
    16:00 0°C° 0.1 mm 4 mps 726 mmHg 68%
    17:00 0°C° 0.1 mm 4 mps 726 mmHg 69%
    18:00 0°C° 0.1 mm 4 mps 726 mmHg 70%
    19:00 0°C° 0.1 mm 4 mps 725 mmHg 71%
    20:00 -1°C° 0.1 mm 4 mps 725 mmHg 72%
    21:00 -1°C° 0.1 mm 4 mps 725 mmHg 72%
    22:00 -1°C° 0.1 mm 4 mps 725 mmHg 73%
    23:00 -1°C° 0.2 mm 4 mps 724 mmHg 73%
    Show more